Location: ??
(35.5052°N, 139.7262°E)
Time: 18:13:01
(UTC+00:00)

Cosmos 1655 Rocket - Pass Details

Date: 20 June 2021
Orbit: 971 x 1005 km, 82.9° (Epoch: 30 July)

Event Time Altitude Azimuth Distance (km) Brightness Sun altitude
Exits shadow 17:16:51 27° 175° (S) 1,785 5.0 -20.7°
Maximum altitude 17:20:28 76° 94° (E) 1,001 4.1 -20.2°
Drops below altitude 10° 17:26:42 10° 10° (N) 2,729 7.2 -19.4°
Sets 17:29:13 0° 9° (N) 3,683 8.0 -19.1°
